Date,TemperatureHighF,TemperatureAvgF,TemperatureLowF,DewpointHighF,DewpointAvgF,DewpointLowF,HumidityHigh,HumidityAvg,HumidityLow,PressureMaxIn,PressureMinIn,WindSpeedMaxMPH,WindSpeedAvgMPH,GustSpeedMaxMPH,PrecipitationSumIn
2013-1-1,48.9,46.9,44.1,47.9,45.7,32.3,100,96,63,30.09,29.97,3,1,8,0.25
2013-1-2,45.9,37.6,34.5,45.9,37.6,34.5,100,100,100,30.11,29.94,10,2,17,0.04
2013-1-3,36.3,33.4,28.7,35.7,33.2,28.7,100,99,94,30.28,30.08,6,2,9,0.00
2013-1-4,39.9,31.4,25.7,29.9,24.7,20.0,99,78,45,30.32,30.24,13,4,19,0.00
2013-1-5,49.5,36.8,25.9,34.1,25.6,21.5,86,66,38,30.31,30.20,5,1,9,0.02
2013-1-6,41.6,36.7,34.3,37.7,35.3,33.8,100,95,82,30.22,30.10,13,4,19,0.02
2013-1-7,50.6,37.6,26.8,33.5,29.9,26.8,100,77,46,30.33,30.19,9,3,20,0.00
2013-1-8,52.5,46.1,37.6,52.3,41.6,29.1,100,84,66,30.36,30.27,8,5,16,0.00
2013-1-9,59.8,55.6,50.1,57.1,54.1,50.1,100,95,85,30.43,30.33,7,3,11,0.00
2013-1-10,61.7,58.1,54.2,58.0,55.3,53.1,100,91,77,30.43,30.27,16,7,38,0.01
2013-1-11,61.4,58.4,55.1,61.4,58.4,55.1,100,100,100,30.30,30.14,19,9,33,0.12
2013-1-12,66.7,62.7,60.9,63.7,61.6,60.1,100,96,85,30.20,30.11,11,5,20,0.04
2013-1-13,62.9,61.2,59.5,61.5,60.1,58.4,100,96,92,30.14,30.05,15,10,28,0.08
2013-1-14,60.7,56.6,45.9,60.7,56.6,45.9,100,100,100,30.18,30.06,9,4,17,1.35
2013-1-15,59.9,56.9,46.0,59.9,56.9,46.0,100,100,100,30.13,30.00,11,6,15,1.27
2013-1-16,60.3,55.8,51.1,60.3,55.8,51.1,100,100,100,30.03,29.94,8,3,15,0.60
2013-1-17,51.0,44.4,32.9,51.0,44.4,32.9,100,100,100,30.17,29.67,9,2,26,1.47
2013-1-18,49.5,36.3,26.6,34.5,30.2,25.6,100,81,48,30.44,30.20,3,1,9,0.00
2013-1-19,51.2,41.1,32.8,30.4,27.5,23.0,80,60,38,30.40,30.20,8,3,15,0.00
2013-1-20,53.1,44.4,36.8,35.8,31.8,27.2,72,62,46,30.19,30.09,11,4,18,0.00
2013-1-21,44.5,38.0,30.6,34.1,26.4,15.5,87,65,39,30.11,30.05,16,6,31,0.00
2013-1-22,31.9,25.9,20.5,15.6,8.1,2.8,61,47,33,30.22,30.08,15,10,26,0.00
2013-1-23,42.6,32.6,24.6,33.3,19.3,6.6,75,58,44,30.29,30.13,8,6,19,0.00
2013-1-24,42.3,36.3,28.7,39.6,22.0,7.2,91,59,32,30.29,30.09,19,10,33,0.00
2013-1-25,41.3,32.5,25.7,41.3,25.7,9.1,100,79,42,30.30,30.08,10,6,19,0.14
2013-1-26,46.4,37.0,29.9,38.9,32.7,27.6,100,86,56,30.27,30.11,5,2,11,0.00
2013-1-27,46.5,39.5,33.8,35.4,32.3,27.7,82,75,63,30.41,30.26,11,5,15,0.00
2013-1-28,55.8,48.6,40.5,54.4,46.1,31.2,100,91,66,30.38,30.26,8,4,15,0.00
2013-1-29,60.4,57.4,52.0,60.3,56.8,50.4,100,98,93,30.27,30.03,11,6,22,0.08
2013-1-30,61.4,54.7,40.9,61.4,54.7,40.9,100,100,97,30.01,29.61,23,12,41,3.52
2013-1-31,38.0,33.1,27.5,38.0,24.9,21.6,100,73,55,30.08,29.73,19,10,33,0.01